Location: *
(38.4303°S, 157.0822°W)
Time: 15:51:27
(UTC+00:00)

Cosmos 2278 - Pass Details

Date: 21 May 2024
Orbit: 837 x 853 km, 71.1° (Epoch: 22 June)

Event Time Altitude Azimuth Distance (km) Brightness Sun altitude
Exits shadow 15:12:58 46° 192° (SSW) 1,133 4.2 -26.3°
Drops below altitude 10° 15:17:12 10° 165° (SSE) 2,493 6.2 -25.5°
Sets 15:19:42 0° 161° (SSE) 3,432 7.0 -25.0°
